Birmingham, United Kingdom

5:05 AM BST on August 21, 2017 (GMT +0100)
Birmingham

Weather History for EGBB - February, 2013

Change the Weather History Date:

Monday, February 18, 2013

  Actual Average Record
Temperature  
Mean Temperature 36 °F -  
Max Temperature 44 °F 46 °F 51 °F (1999)
Min Temperature 28 °F 34 °F 21 °F (2003)
Degree Days  
Heating Degree Days 29    
Moisture  
Dew Point 34 °F    
Average Humidity 86    
Maximum Humidity 100    
Minimum Humidity 71    
Precipitation  
Precipitation 0.00 in 0.07 in - ()
Sea Level Pressure  
Sea Level Pressure 30.10 in    
Wind  
Wind Speed 7 mph ()    
Max Wind Speed 12 mph    
Max Gust Speed -    
Visibility 4.3 miles    
Events      
Averages and records for this station are not official NWS values.
T = Trace of Precipitation, MM = Missing Value Source: Averaged Metar Reports

Daily Weather History Graph

Daily Weather History Graph

Search for Another Location

Airport or City:

Trip Planner

Search our weather history database for the weather conditions in past years. The results will help you decide how hot, cold, wet, or windy it might be!

Date:

Astronomy

Feb. 18, 2013 Rise Set
Actual Time 7:16 AM GMT 5:25 PM GMT
Civil Twilight 6:41 AM GMT 6:00 PM GMT
Nautical Twilight 6:02 AM GMT 6:40 PM GMT
Astronomical Twilight 5:22 AM GMT 7:20 PM GMT
Moon 10:38 AM GMT (2/18) 2:04 AM GMT (2/18)
Length of Visible Light 11h 19m
Length of Day
10h 09m
First Quarter, 56% of the Moon is Illuminated
Feb 18
First Quarter
Feb 25
Full
Mar 4
Last Quarter
Mar 11
New
Mar 19
First Quarter

Hourly Weather History & Observations

Time (GMT) Temp. Windchill Dew Point Humidity Pressure Visibility Wind Dir Wind Speed Gust Speed Precip Events Conditions
12:20 AM 37.4 °F 30.3 °F 33.8 °F 87% 30.09 in 4.3 mi ESE 10.4 mph - N/A   Mostly Cloudy
12:50 AM 37.4 °F 32.1 °F 33.8 °F 87% 30.09 in 4.3 mi ESE 6.9 mph - N/A   Mostly Cloudy
1:20 AM 37.4 °F 31.4 °F 33.8 °F 87% 30.09 in 4.3 mi ESE 8.1 mph - N/A   Mostly Cloudy
1:50 AM 35.6 °F 29.2 °F 33.8 °F 93% 30.09 in 3.1 mi ESE 8.1 mph - N/A   Mostly Cloudy
2:20 AM 35.6 °F - 33.8 °F 93% 30.09 in - Variable 2.3 mph - N/A   Haze
2:50 AM 35.6 °F 31.7 °F 33.8 °F 93% 30.09 in 2.2 mi ESE 4.6 mph - N/A   Haze
3:20 AM 35.6 °F 30.7 °F 33.8 °F 93% 30.09 in 2.5 mi ESE 5.8 mph - N/A   Haze
3:50 AM 37.4 °F 32.1 °F 33.8 °F 87% 30.09 in 2.5 mi ESE 6.9 mph - N/A   Haze
4:20 AM 35.6 °F 29.9 °F 33.8 °F 93% 30.09 in 2.5 mi SE 6.9 mph - N/A   Haze
4:50 AM 35.6 °F 29.2 °F 33.8 °F 93% 30.09 in 2.5 mi SE 8.1 mph - N/A   Haze
5:20 AM 35.6 °F 29.2 °F 33.8 °F 93% 30.09 in 2.8 mi SE 8.1 mph - N/A   Haze
5:50 AM 35.6 °F 29.2 °F 33.8 °F 93% 30.09 in 2.8 mi SE 8.1 mph - N/A   Haze
6:20 AM 35.6 °F 29.9 °F 33.8 °F 93% 30.09 in 2.8 mi ESE 6.9 mph - N/A   Haze
6:50 AM 35.6 °F 29.9 °F 33.8 °F 93% 30.09 in 2.8 mi ESE 6.9 mph - N/A   Haze
7:20 AM 35.6 °F 28.6 °F 33.8 °F 93% 30.09 in 2.8 mi ESE 9.2 mph - N/A   Haze
7:50 AM 35.6 °F 29.9 °F 33.8 °F 93% 30.09 in 2.8 mi ESE 6.9 mph - N/A   Haze
8:20 AM 35.6 °F 30.7 °F 33.8 °F 93% 30.12 in 3.1 mi ESE 5.8 mph - N/A   Haze
8:50 AM 37.4 °F 32.8 °F 33.8 °F 87% 30.12 in 3.7 mi ESE 5.8 mph - N/A   Mostly Cloudy
9:20 AM 37.4 °F 31.4 °F 33.8 °F 87% 30.12 in 3.7 mi ESE 8.1 mph - N/A   Mostly Cloudy
9:50 AM 39.2 °F 33.0 °F 35.6 °F 87% 30.12 in 3.7 mi ESE 9.2 mph - N/A   Mostly Cloudy
10:20 AM 41.0 °F 35.2 °F 35.6 °F 81% 30.12 in 6.2 mi ESE 9.2 mph - N/A   Mostly Cloudy
10:50 AM 41.0 °F 34.7 °F 35.6 °F 81% 30.12 in 6.2 mi ESE 10.4 mph - N/A   Partly Cloudy
11:20 AM 42.8 °F 38.0 °F 35.6 °F 76% 30.12 in 6.2 mi ESE 8.1 mph - N/A   Partly Cloudy
11:50 AM 42.8 °F 37.5 °F 35.6 °F 76% 30.12 in 6.2 mi ESE 9.2 mph - N/A   Partly Cloudy
12:20 PM 44.6 °F 39.2 °F 35.6 °F 71% 30.12 in 6.2 mi ESE 10.4 mph - N/A   Partly Cloudy
12:50 PM 44.6 °F 38.8 °F 35.6 °F 71% 30.12 in 6.2 mi SE 11.5 mph - N/A   Scattered Clouds
1:20 PM 42.8 °F 37.5 °F 35.6 °F 76% 30.09 in 6.2 mi ESE 9.2 mph - N/A   Mostly Cloudy
1:50 PM 44.6 °F 39.7 °F 35.6 °F 71% 30.09 in 5.6 mi SE 9.2 mph - N/A   Scattered Clouds
2:20 PM 44.6 °F 40.2 °F 35.6 °F 71% 30.09 in 5.6 mi East 8.1 mph - N/A   Scattered Clouds
2:50 PM 44.6 °F 40.2 °F 35.6 °F 71% 30.09 in 6.2 mi SE 8.1 mph - N/A   Scattered Clouds
3:20 PM 44.6 °F 39.7 °F 35.6 °F 71% 30.09 in 5.6 mi SE 9.2 mph - N/A   Partly Cloudy
3:50 PM 42.8 °F 37.5 °F 35.6 °F 76% 30.09 in 5.6 mi SE 9.2 mph - N/A   Partly Cloudy
4:20 PM 42.8 °F 37.5 °F 35.6 °F 76% 30.09 in 5.6 mi ESE 9.2 mph - N/A   Scattered Clouds
4:50 PM 41.0 °F 36.4 °F 35.6 °F 81% 30.09 in 5.0 mi ESE 6.9 mph - N/A   Unknown
5:20 PM 41.0 °F 35.8 °F 33.8 °F 76% 30.09 in 5.0 mi ESE 8.1 mph - N/A   Unknown
5:50 PM 39.2 °F 34.2 °F 33.8 °F 81% 30.09 in 4.3 mi ESE 6.9 mph - N/A   Unknown
6:20 PM 37.4 °F 34.9 °F 33.8 °F 87% 30.09 in 6.2 mi ESE 3.5 mph - N/A   Unknown
6:50 PM 37.4 °F 34.9 °F 33.8 °F 87% 30.12 in - East 3.5 mph - N/A   Clear
7:20 PM 35.6 °F - 32.0 °F 87% 30.12 in 5.0 mi Calm Calm - N/A   Unknown
7:50 PM 33.8 °F 30.8 °F 32.0 °F 93% 30.12 in 4.3 mi Variable 3.5 mph - N/A   Unknown
8:20 PM 33.8 °F 30.8 °F 32.0 °F 93% 30.12 in 3.7 mi ESE 3.5 mph - N/A   Unknown
8:50 PM 32.0 °F - 32.0 °F 100% 30.12 in 4.3 mi Calm Calm - N/A   Unknown
9:20 PM 32.0 °F 28.7 °F 30.2 °F 93% 30.12 in 3.7 mi ESE 3.5 mph - N/A   Unknown
9:50 PM 30.2 °F - 28.4 °F 93% 30.12 in 3.7 mi SE 2.3 mph - N/A   Unknown
10:20 PM 32.0 °F - 32.0 °F 100% 30.12 in 3.7 mi Variable 2.3 mph - N/A   Unknown
10:50 PM 28.4 °F 24.6 °F 28.4 °F 100% 30.12 in - SE 3.5 mph - N/A   Mist
11:20 PM 30.2 °F 26.7 °F 30.2 °F 100% 30.12 in - Variable 3.5 mph - N/A   Mist